Location: Newark
(49.3000°N, 9.4667°E)
Time: 23:13:29
(UTC+00:00)

Transit 4A - Pass Details

Date: 30 May 2019
Orbit: 862 x 983 km, 66.8° (Epoch: 17 June)

Event Time Altitude Azimuth Distance (km) Brightness Sun altitude
Rises 23:17:27 0° 311° (NW) 3,694 11.6 -18.9°
Reaches altitude 10° 23:21:35 10° 286° (WNW) 2,731 10.5 -18.9°
Maximum altitude 23:24:19 13° 260° (W) 2,496 10.0 -18.9°
Enters shadow 23:26:42 11° 237° (WSW) 2,654 10.0 -18.8°
